Home   Weather   Monterey   Past weeks

Flag for USA Past Weather in Monterey, California, USA — Yesterday and Last 2 Weeks

Now
62 °F

Scattered clouds.


Feels Like: 62 °F
Forecast: 54 / 61 °F
Wind: 9 mph from West

Location: Monterey Peninsula Airport

Current Time: Apr 25, 2017 at 3:48:40 pm

Latest Report: Apr 25, 2017 at 2:54 pm


Visibility: 10 mi

Pressure: 30.16 "Hg

Humidity: 65%

Dew Point: 50 °F

Location of MontereyLocation

Past Weather in Monterey — Graph

°F

Monterey Temperature Yesterday

Maximum temperature yesterday: 61 °F (at 12:54 pm)
Minimum temperature yesterday: 51 °F (at 4:54 am)
Average temperature yesterday: 57 °F

High & Low Weather Summary for the Past Weeks

 TemperatureHumidityPressure
High70 °F (Apr 11, 2:54 pm)100% (Apr 12, 4:54 am)30.34 "Hg (Apr 12, 4:54 am)
Low41 °F (Apr 14, 5:54 am)30% (Apr 15, 11:54 am)29.95 "Hg (Apr 13, 3:19 am)
Average56 °F78%30.11 "Hg
* Reported Apr 10 1:54 pm — Apr 25 1:54 pm, Monterey, Weather by CustomWeather, © 2017

Note: Actual official high and low records may vary slightly from our data, if they occured in-between our weather recording intervals... More about our weather records

Advertising

Monterey Weather History for the Previous 24 Hours

Scroll right to see more
 ConditionsComfort  
Time TempWeatherWind HumidityBarometerVisibility
1:54 pm
Tue, Apr 25
61 °FSunny.10 mph67%30.16 "Hg10 mi
12:54 pm61 °FScattered clouds.12 mph65%30.16 "Hg10 mi
12:04 pm58 °FScattered clouds.10 mph70%30.14 "Hg10 mi
10:54 am59 °FSunny.8 mph69%30.17 "Hg10 mi
9:54 am58 °FSunny.9 mph70%30.16 "Hg10 mi
8:54 am56 °FScattered clouds.9 mph75%30.14 "Hg10 mi
7:54 am55 °FScattered clouds.8 mph80%30.12 "Hg10 mi
6:54 am53 °FOvercast.6 mph83%30.11 "Hg10 mi
5:54 am52 °FOvercast.6 mph86%30.11 "Hg10 mi
4:54 am53 °FClear.7 mph86%30.11 "Hg10 mi
3:54 am53 °FClear.7 mph86%30.11 "Hg10 mi
2:54 am53 °FClear.5 mph86%30.12 "Hg10 mi
1:54 am53 °FPassing clouds.3 mph83%30.13 "Hg10 mi
12:54 am54 °FOvercast.6 mph83%30.13 "Hg10 mi
11:54 pm
Mon, Apr 24
55 °FMostly cloudy.7 mph83%30.14 "Hg10 mi
10:54 pm55 °FOvercast.12 mph90%30.14 "Hg10 mi
10:25 pm56 °FMostly cloudy.8 mph87%30.10 "Hg10 mi
10:18 pm55 °FPassing clouds.10 mph90%30.09 "Hg10 mi
9:54 pm56 °FPassing clouds.8 mph87%30.12 "Hg10 mi
8:54 pm56 °FLow clouds.12 mph87%30.11 "Hg10 mi
7:54 pm57 °FOvercast.7 mph83%30.11 "Hg10 mi
7:38 pm57 °FMore clouds than sun.9 mph87%30.07 "Hg10 mi
7:19 pm57 °FCloudy.10 mph87%30.09 "Hg10 mi
6:54 pm58 °FMostly cloudy.9 mph84%30.10 "Hg10 mi
5:54 pm59 °FCloudy.10 mph78%30.11 "Hg10 mi
4:54 pm60 °FBroken clouds.13 mph75%30.12 "Hg10 mi
3:54 pm61 °FOvercast.12 mph70%30.13 "Hg10 mi
3:35 pm60 °FMore clouds than sun.12 mph72%30.10 "Hg10 mi
Weather by CustomWeather, © 2017

See weather overviewHow to use our weather pages